Welcome to the New NWS' Forecast!
Most changes are behind the scenes, but click here for differences you might notice.

Regional Weather Roundup (RWR)

Issued by Gray - Portland, ME (GYX)

                            
680 
ASUS41 KGYX 151505
RWRGYX
WEATHER ROUNDUP FOR MAINE AND NEW HAMPSHIRE
NATIONAL WEATHER SERVICE GRAY ME
1100 AM EDT WED AUG 15 2018

MEZ002-005-006-010-012-015-018-020-021-024-026-027-029-151600-
MAINE
  
CITY           SKY/WX    TMP DP  RH WIND       PRES   REMARKS
PORTLAND       CLOUDY    74  70  87 W5        29.84S                  
SANFORD        CLOUDY    74  69  85 VRB3      29.86R                  
BAR HARBOR     CLOUDY    71  68  90 SW9       29.83S                  
WISCASSET      CLOUDY    74  70  87 VRB3      29.85S                  
ROCKLAND       CLOUDY    72  71  97 SW5       29.83S                  
FRYEBURG       PTSUNNY   75  69  81 VRB3      29.86S                  
LEWISTONAUBURN PTSUNNY   74  68  81 CALM      29.85S                  
AUGUSTA        PTSUNNY   74  68  81 VRB3      29.85R                  
WATERVILLE     CLOUDY    76  68  76 CALM      29.82R                  
BANGOR         PTSUNNY   77  69  76 VRB6      29.83S                  
GREENVILLE       N/A     74  67  78 CALM      29.84S                  
MILLINOCKET    CLOUDY    77  66  68 VRB3      29.82S                  
HOULTON        PTSUNNY   75  69  81 SW10      29.79S                  
PRESQUE ISLE   LGT RAIN  74  69  85 SW7       29.79S                  
FRENCHVILLE    PTSUNNY   77  69  76 W7        29.77R                  
CARIBOU        PTSUNNY   76  68  76 SW9       29.77S                  
$$

NHZ002-005-008-009-011-012-014-151600-
NEW HAMPSHIRE
  
CITY           SKY/WX    TMP DP  RH WIND       PRES   REMARKS
PORTSMOUTH     PTSUNNY   74  69  82 W7        29.83S                  
ROCHESTER      PTSUNNY   76  71  85 CALM      29.85S                  
MANCHESTER     NOT AVBL                                               
CONCORD        CLOUDY    78  69  73 NW6       29.86R                  
LACONIA        PTSUNNY   76  68  76 SW5       29.86S                  
PLYMOUTH       FAIR      79  66  65 W6        29.86S                  
BERLIN         FAIR      79  66  64 CALM      29.88S                  
WHITEFIELD     CLOUDY    76  66  71 CALM      29.89S                  
JAFFREY        NOT AVBL                                               
LEBANON        FAIR      77  66  68 CALM      29.88R                  
MT WASHINGTON  NOT AVBL                                               
$$

VTZ005-007-008-151600-
VERMONT
  
CITY           SKY/WX    TMP DP  RH WIND       PRES   REMARKS
ST JOHNSBURY     N/A     74  68  81 MISG      29.86S                  
MONTPELIER     FAIR      70  69  97 S3        29.94S                  
BURLINGTON     FAIR      80  68  66 SW8       29.86R                  
$$

MAZ007-012-024-CTZ003-RIZ002-NYZ038-NYZ072-151600-
SOUTHERN NEW ENGLAND AND NY
  
CITY           SKY/WX    TMP DP  RH WIND       PRES   REMARKS
BOSTON         FAIR      79  70  74 W6        29.84S                  
WORCESTER      FAIR      76  67  73 NW8       29.89S                  
NANTUCKET      FAIR      75  71  87 SW13      29.85S                  
PROVIDENCE     FAIR      78  68  71 NW7       29.85S                  
HARTFORD       PTSUNNY   80  67  64 NW10      29.87R                  
ALBANY         FAIR      79  67  66 NW7       29.90S                  
NEW YORK CITY  FAIR      82  66  58 NW13      29.90S                  
$$

ANZ081-ANZ082-ANZ150-NHZ014-MEZ023>029-151600-
COASTAL MARINE OBSERVATIONS
  
STATION/POSITION TIME  TEMP    WIND        PRES    WAVE
                       AIR SEA DIR/SP/G            HT/PER
                 (UTC) (F)     (DEG/KT/KT) (MB)    (FT/S)
MOUNT DESERT ROC 1500   67     230/  5/  5 1010.6F
MATINICUS ROCK   1400   67     220/  5/  5 1010.2R
ISLE OF SHOALS   1400   69      CALM  /  1 1009.7S
JEFFREYS LEDGE   1436      69                N/A     2/ 7
$$

.............KEY..............
   WCI - WIND CHILL
   TC  - TEMPERATURE IN CELSIUS
   VSB - VISIBILITY IN MILES
   HX  - HEAT INDEX
   FAIR- INDICATES FEW OR NO CLOUDS BELOW 12,000 FT, WITH NO 
         SIGNIFICANT WEATHER AND/OR OBSTRUCTIONS TO VISIBILITY.